Voltar ao catálogo

SL-3 DEB

AtivoPO
NORAD 17755·DEBRIS·🇷🇺 Russia

Lançado Dec 14, 1982 de Plesetsk Cosmodrome

Loading…

Próximas Passagens (próximas 24 horas)

TLE

AtualizadoSource: Space-Track

Época: Sep 14, 2026, 09:25 UTC

1 17755U 82116D   26257.39240663  .00000027  00000-0  67158-5 0  9999
2 17755  81.2532 298.3020 0070021  97.9913 275.4889 14.14715970257534

Acompanhe SL-3 DEB em tempo real com AllMySat

Download on the App Store